Weather History for KOWB - July, 2012

Change the Weather History Date:

Friday, July 20, 2012

  Actual Average Record
Temperature  
Mean Temperature 82 °F -  
Max Temperature 91 °F 89 °F 100 °F (1983)
Min Temperature 72 °F 67 °F 56 °F (1984)
Cooling Degree Days 16    
Growing Degree Days 32 (Base 50)    
Moisture  
Dew Point 74 °F    
Average Humidity 83    
Maximum Humidity 100    
Minimum Humidity 50    
Precipitation  
Precipitation 0.00 in - - ()
Sea Level Pressure  
Sea Level Pressure 29.94 in    
Wind  
Wind Speed 7 mph (WNW)    
Max Wind Speed 15 mph    
Max Gust Speed -    
Visibility 9 miles    
Events Thunderstorm    
Averages and records for this station are not official NWS values.
T = Trace of Precipitation, MM = Missing Value Source: NWS Daily Summary

Daily Weather History Graph

Daily Weather History Graph

Search for Another Location

Airport or City:

Trip Planner

Search our weather history database for the weather conditions in past years. The results will help you decide how hot, cold, wet, or windy it might be!

Date:

Astronomy

Jul. 20, 2012 Rise Set
Actual Time 5:42 AM CDT 8:06 PM CDT
Civil Twilight 5:12 AM CDT 8:36 PM CDT
Nautical Twilight 4:35 AM CDT 9:13 PM CDT
Astronomical Twilight 3:54 AM CDT 9:54 PM CDT
Moon 7:16 AM CDT (7/20) 8:50 PM CDT (7/20)
Length of Visible Light 15h 23m
Length of Day
14h 23m
Waxing Crescent, 3% of the Moon is Illuminated
Jul 20
Waxing Crescent
Jul 26
First Quarter
Aug 1
Full
Aug 9
Last Quarter
Aug 17
New

Hourly Weather History & Observations

Time (CDT) Temp. Heat Index Dew Point Humidity Pressure Visibility Wind Dir Wind Speed Gust Speed Precip Events Conditions
12:32 AM 75.2 °F - 75.2 °F 100% 29.91 in 10.0 mi South 11.5 mph - 0.00 in Thunderstorm Thunderstorm
12:56 AM 73.9 °F - 73.9 °F 100% 29.91 in 10.0 mi SSE 5.8 mph - 0.00 in   Scattered Clouds
1:10 AM 73.4 °F - 73.4 °F 100% 29.92 in 10.0 mi SSW 8.1 mph - N/A Thunderstorm Scattered Clouds
1:25 AM 73.4 °F - 73.4 °F 100% 29.91 in 8.0 mi SSW 4.6 mph - N/A   Partly Cloudy
1:56 AM 73.9 °F - 73.9 °F 100% 29.89 in 10.0 mi SW 4.6 mph - N/A   Clear
2:56 AM 73.9 °F - 73.9 °F 100% 29.88 in 10.0 mi Calm Calm - N/A   Clear
3:56 AM 73.9 °F - 73.9 °F 100% 29.90 in 10.0 mi SSW 5.8 mph - N/A   Clear
4:56 AM 72.9 °F - 72.9 °F 100% 29.91 in 10.0 mi Calm Calm - N/A   Clear
5:56 AM 73.9 °F - 73.9 °F 100% 29.92 in 7.0 mi WSW 3.5 mph - N/A   Overcast
6:56 AM 74.8 °F - 73.9 °F 97% 29.92 in 7.0 mi Calm Calm - 0.00 in   Overcast
7:56 AM 75.9 °F - 73.9 °F 94% 29.94 in 7.0 mi SW 3.5 mph - N/A   Overcast
8:35 AM 77.0 °F - 75.2 °F 94% 29.95 in 7.0 mi SSW 6.9 mph - N/A   Mostly Cloudy
8:56 AM 77.9 °F - 74.8 °F 90% 29.94 in 7.0 mi SW 5.8 mph - N/A   Overcast
9:56 AM 81.9 °F 89.7 °F 77.0 °F 85% 29.94 in 7.0 mi WNW 5.8 mph - N/A   Overcast
10:56 AM 82.9 °F 90.8 °F 75.9 °F 79% 29.96 in 7.0 mi Variable 4.6 mph - N/A   Overcast
11:56 AM 84.9 °F 95.3 °F 77.0 °F 77% 29.96 in 7.0 mi NE 8.1 mph - N/A   Mostly Cloudy
12:56 PM 86.9 °F 97.3 °F 75.9 °F 70% 29.95 in 7.0 mi Variable 3.5 mph - N/A   Mostly Cloudy
1:56 PM 88.9 °F 97.6 °F 73.9 °F 61% 29.94 in 7.0 mi North 9.2 mph - N/A   Mostly Cloudy
2:56 PM 88.9 °F 99.7 °F 75.9 °F 65% 29.93 in 7.0 mi NNE 6.9 mph - N/A   Mostly Cloudy
3:56 PM 90.9 °F 98.9 °F 72.9 °F 55% 29.92 in 10.0 mi Variable 6.9 mph - N/A   Partly Cloudy
4:56 PM 91.9 °F 98.4 °F 70.9 °F 50% 29.92 in 10.0 mi North 10.4 mph - N/A   Scattered Clouds
5:56 PM 90.9 °F 97.3 °F 70.9 °F 52% 29.91 in 10.0 mi NW 8.1 mph - N/A   Clear
6:56 PM 88.0 °F 95.6 °F 72.9 °F 61% 29.93 in 10.0 mi North 10.4 mph - N/A   Scattered Clouds
7:56 PM 84.9 °F 92.1 °F 73.9 °F 69% 29.95 in 10.0 mi NE 6.9 mph - N/A   Partly Cloudy
8:56 PM 81.9 °F 87.7 °F 73.9 °F 77% 29.97 in 10.0 mi ENE 9.2 mph - N/A   Clear
9:56 PM 79.0 °F - 70.9 °F 76% 30.00 in 10.0 mi NE 15.0 mph - N/A   Clear
10:56 PM 77.0 °F - 70.0 °F 79% 30.01 in 10.0 mi NE 9.2 mph - N/A   Clear
11:56 PM 75.2 °F - 69.8 °F 83% 30.03 in 10.0 mi NE 8.1 mph - N/A   Clear